Location: �terpigny
(49.8910°N, 2.9249°E)
Time: 11:01:51
(UTC+00:00)

NOSS 2-3 (E) - Pass Details

Date: 24 October 2021
Orbit: 540 x 1670 km, 63.4° (Epoch: 28 November)

Event Time Altitude Azimuth Distance (km) Brightness Sun altitude
Rises 17:22:10 0° 191° (S) 2,688 7.1 -7.5°
Reaches altitude 10° 17:24:26 10° 179° (S) 1,827 6.1 -7.9°
Maximum altitude 17:27:55 29° 118° (ESE) 1,085 4.4 -8.4°
Drops below altitude 10° 17:31:54 10° 58° (ENE) 2,097 5.7 -9.1°
Enters shadow 17:32:11 - 56° (ENE) 2,199 5.8 -9.1°
